SCP
0 0 0 -0 0 -0 -0 -0 0 0 0 0 0 0 -0 0 0 0 0 0 0 -0 0 -0 0 0 0 0 0 0 0 0 0 0 0 0 0 1 0 -1 -0 0 1 1
0 0 0 -0 0 0 0 -0 0 0 0 0 0 0 0 0 0 0 0 0 0 0 0 0 0 0 0 0 0 0 0 0 0 0 0 1 0 0 0 0 0 0 1 1
0 0 0 0 0 0 0 -0 0 0 0 0 0 0 0 0 0 0 0 0 0 0 0 0 0 0 0 0 0 0 0 0 0 0 0 0 0 0 0 0 0 0 0 0
0 0 0 0 0 0 0 0 0 0 0 0 0 0 0 0 0 0 0 0 0 0 0 0 0 0 0 0 0 0 0 0 0 0 0 0 0 0 0 -0 -0 -0 0 0
0 0 0 0 0 0 0 0 0 0 0 0 0 0 0 0 0 0 0 0 0 0 0 0 0 0 0 0 0 0 0 0 0 0 0 0 0 0 0 0 0 0 -0 -0
0 0 0 0 0 0 0 0 0 0 0 0 0 0 0 0 0 0 0 0 0 0 0 -0 -0 0 0 0 0 0 0 0 0 0 0 0 0 0 0 0 0 0 -0 0
0 0 0 0 0 0 0 0 0 0 0 0 0 0 0 0 0 0 0 0 0 -0 -0 -0 -0 -0 -0 0 0 0 0 0 0 0 0 0 0 0 0 0 0 0 0 0
0 0 0 0 0 0 0 0 0 0 0 0 0 0 0 0 0 0 0 0 0 -0 -0 -0 -0 -0 -0 0 0 0 0 0 0 0 0 0 0 0 0 0 0 0 0 0
0 0 0 0 0 0 0 0 0 0 0 0 0 0 0 0 0 0 0 0 -0 -0 -0 -0 -0 -0 -0 -0 -0 0 0 0 0 0 0 0 0 0 0 0 0 0 0 0
0 0 0 0 0 0 0 0 0 0 0 0 0 0 0 0 0 0 0 -0 -0 -0 -0 -0 -0 -0 -0 0 0 0 0 0 0 0 0 0 0 0 -0 -0 0 0 0 0
0 0 0 0 0 0 0 0 0 0 0 0 0 0 0 0 0 0 0 0 0 0 0 0 0 0 0 0 0 0 0 0 0 0 0 -0 -0 -0 -0 -0 -0 -0 -0 0
0 0 0 0 0 0 0 0 0 0 0 0 0 0 0 0 0 0 0 0 0 0 0 0 0 0 0 0 0 0 0 0 0 0 0 -0 -0 -0 -0 -0 -0 -0 -0 -0
0 0 0 0 0 0 0 0 0 0 0 0 0 0 0 0 0 0 0 0 0 0 0 0 0 0 0 0 0 0 0 0 0 0 0 0 -0 0 -0 0 -0 -0 -0 -0
0 0 0 0 0 0 0 0 0 0 0 0 0 0 0 0 0 0 0 0 0 0 0 0 0 0 0 0 0 0 0 0 0 0 0 0 0 0 0 0 0 0 0 -0
0 0 0 0 0 0 0 0 0 0 0 0 0 0 0 0 0 0 0 0 0 0 0 0 0 0 0 0 0 0 0 0 0 0 0 0 0 0 0 0 0 0 0 -0
0 0 0 0 0 0 0 0 0 0 0 0 0 0 0 0 0 0 0 0 0 0 0 0 0 0 0 0 0 0 0 0 0 0 0 0 0 0 0 0 0 0 0 0
0 0 0 0 0 0 0 0 0 0 0 0 0 0 0 0 0 0 0 0 0 0 0 0 0 0 0 0 0 0 0 0 0 0 0 0 0 0 0 0 0 0 0 0
0 0 0 0 0 0 0 0 0 0 0 0 0 0 0 0 0 0 0 0 0 0 0 0 0 0 0 0 0 0 0 0 0 0 0 0 0 0 0 0 0 0 0 -0
0 0 0 0 0 0 0 0 0 0 0 0 0 0 0 0 0 0 0 0 0 0 0 0 0 0 0 0 0 0 0 0 0 0 0 0 0 0 0 0 0 0 0 -0
0 0 0 0 0 0 0 0 0 0 0 0 0 0 0 0 0 0 0 0 0 0 0 0 0 0 0 0 0 0 0 0 0 0 0 0 0 0 0 0 0 0 0 0
0 0 0 0 0 0 0 0 0 0 0 0 0 0 0 0 0 0 0 0 0 0 0 0 0 0 0 0 0 0 0 0 0 0 0 0 0 0 0 0 0 0 0 0
0 0 0 0 0 0 0 0 0 0 0 0 0 0 0 0 0 0 0 0 0 0 0 0 0 0 0 0 0 0 0 0 0 0 0 0 0 0 0 0 0 0 0 0
0 0 0 0 0 0 0 0 0 0 0 0 0 0 0 0 0 0 0 0 0 0 0 0 0 0 0 0 0 0 0 0 0 0 0 0 0 0 0 0 0 0 0 0
0 0 0 0 0 0 0 0 0 0 0 0 0 0 0 0 0 0 0 0 0 0 0 0 0 0 0 0 0 0 0 0 0 0 0 0 0 0 0 0 0 0 0 0
0 0 0 0 0 0 0 0 0 0 0 0 0 0 0 0 0 0 0 0 0 0 0 0 0 0 0 0 0 0 0 0 0 0 0 0 0 0 0 0 0 0 0 0
0 0 0 0 0 0 0 0 0 0 0 0 0 0 0 0 0 0 0 0 0 0 0 0 0 0 0 0 0 0 0 0 0 0 0 0 0 0 0 0 0 0 0 0
Wind_Speed_500mb
4 11 3 13 13 14 5 3 11 12 13 9 4 5 25 35 43 32 41 56 56 57 57 52 53 48 34 26 15 14 38 44 52 51 58 60 56 52 58 69 76 65 60 62
11 8 17 15 7 4 14 12 12 8 17 10 6 12 16 22 25 30 34 41 45 46 45 47 50 52 49 39 30 12 6 14 29 42 46 50 52 54 55 63 63 67 71 69
13 15 10 5 6 9 8 13 8 3 10 5 3 7 13 19 32 34 37 39 42 43 44 44 45 45 40 41 36 25 15 9 11 15 23 39 49 52 60 57 60 61 60 64
8 4 8 11 9 8 8 2 9 10 9 4 8 7 2 14 11 21 27 34 37 38 38 38 36 39 42 40 32 27 25 22 20 19 20 18 18 28 30 36 43 57 62 55
7 6 3 11 6 6 8 2 5 3 5 8 12 7 5 18 5 3 15 26 30 31 30 28 26 29 29 29 29 27 26 25 28 28 26 24 22 22 25 26 36 46 42 36
6 5 9 10 6 7 3 10 17 12 7 4 4 10 10 10 13 8 13 18 21 24 23 22 19 15 15 17 19 23 26 29 32 34 35 31 29 25 24 24 25 23 23 25
11 13 8 9 10 17 18 13 7 9 8 11 10 8 5 15 24 24 28 26 19 16 16 17 15 13 12 10 11 16 22 28 32 33 33 34 33 33 34 35 29 26 20 12
7 8 9 7 8 8 6 11 10 9 5 10 12 3 7 20 42 43 41 32 21 12 9 10 12 11 7 1 4 13 19 22 25 26 26 27 29 32 34 35 36 32 28 24
6 5 7 10 5 8 7 3 10 7 4 5 3 7 7 13 17 29 39 35 27 18 14 9 7 6 5 3 4 11 13 15 15 19 22 25 29 31 33 31 26 21 20 18
3 5 5 8 5 5 10 7 6 7 5 6 8 9 7 20 21 16 27 40 35 30 30 26 20 15 9 3 7 7 6 6 10 15 21 27 32 37 37 34 33 29 24 19
7 8 11 7 4 3 8 5 9 8 8 8 4 10 10 17 24 29 38 54 50 43 37 32 28 23 15 4 5 7 2 1 6 8 12 21 26 33 38 39 41 40 34 29
2 9 2 11 11 5 5 6 8 9 11 3 7 11 7 21 32 48 56 58 52 45 40 40 35 29 21 10 4 3 5 4 5 10 14 19 27 33 36 40 43 45 43 36
9 4 5 16 13 13 9 7 4 7 6 9 9 10 6 14 22 27 28 44 54 53 48 47 41 36 26 18 7 9 8 6 3 9 13 18 26 29 30 35 40 42 42 41
14 7 11 12 8 6 8 14 9 7 6 8 12 14 21 11 15 30 15 6 24 32 39 43 46 41 32 23 13 14 8 8 8 10 18 21 27 28 30 34 36 42 39 40
10 8 7 7 6 4 5 12 17 8 13 11 12 9 17 17 9 13 41 41 33 18 25 37 50 49 41 28 15 12 22 17 14 20 24 27 29 33 33 33 36 36 39 50
5 3 5 4 7 10 13 18 19 19 23 10 10 2 9 34 46 44 32 30 26 22 18 10 29 48 44 44 29 23 21 19 28 36 28 29 38 39 38 28 31 39 43 45
9 10 7 8 6 8 12 10 9 6 11 7 9 5 8 17 31 35 30 24 20 18 16 12 4 17 38 42 35 25 21 29 31 21 22 31 29 26 22 22 30 32 35 41
12 11 7 8 4 5 13 12 22 26 14 16 17 12 18 26 30 27 22 22 20 16 13 9 7 9 16 17 19 22 19 20 9 3 4 15 19 21 24 31 36 38 42 50
17 10 4 8 7 10 13 5 5 7 5 6 13 14 20 23 25 21 18 12 16 15 14 10 6 8 14 15 12 14 16 14 12 20 22 27 30 33 35 38 43 50 54 55
12 9 10 6 7 10 7 8 10 12 1 2 13 8 11 12 6 7 20 12 12 13 16 18 15 15 11 8 8 19 23 30 26 27 25 30 36 41 48 49 48 43 44 43
6 5 11 5 6 13 7 13 2 9 12 3 19 18 18 9 3 3 18 13 14 15 23 21 14 6 7 5 11 21 29 26 28 34 38 41 44 51 53 60 49 37 38 41
12 11 7 5 4 11 12 3 9 13 15 24 15 14 17 10 9 8 16 17 18 18 15 9 14 19 17 23 22 22 22 20 25 31 36 45 50 54 50 43 34 33 34 36
3 12 9 13 11 8 6 2 17 19 28 17 16 19 10 10 12 7 7 11 13 11 12 8 1 7 5 4 5 12 17 24 31 39 44 45 35 26 24 26 28 30 28 32
10 4 6 7 4 20 33 26 27 19 20 15 17 13 6 6 4 3 12 12 3 5 6 4 4 10 17 19 26 32 29 28 28 25 27 27 32 32 31 27 26 26 32 34
8 2 8 1 7 22 20 22 17 11 6 9 9 5 6 6 7 6 10 4 8 6 6 6 2 9 18 26 18 15 19 24 26 26 27 37 39 34 27 26 25 26 33 32
9 7 7 10 17 11 12 7 3 4 15 21 11 7 8 7 16 20 18 14 19 10 3 5 14 19 16 13 22 23 22 25 25 26 40 37 35 31 23 24 20 24 31 31
Wind_Direction_500mb
345 59 241 252 210 201 240 6 20 15 0 98 114 41 116 104 99 99 112 122 126 115 105 91 85 81 77 86 100 181 207 217 229 241 245 260 244 259 262 274 266 260 262 267
20 218 237 209 184 53 33 56 356 341 4 74 32 53 104 85 86 100 89 81 85 86 82 75 70 66 64 62 62 60 312 249 248 239 242 259 255 255 268 272 268 259 256 258
169 227 194 123 42 78 31 80 67 96 309 50 108 0 102 68 85 87 84 84 77 72 70 63 50 46 45 43 42 46 53 31 0 312 285 260 260 262 261 274 275 266 255 255
161 257 132 62 69 89 76 350 53 22 61 261 77 267 141 110 60 68 76 73 72 66 61 56 51 46 42 41 35 32 36 35 29 13 346 336 325 312 326 322 314 304 304 302
216 128 108 87 153 96 183 42 24 323 20 45 352 70 292 115 92 106 100 84 74 72 63 62 57 51 47 47 43 33 29 40 38 30 26 13 9 9 2 349 329 320 328 328
239 249 165 143 93 52 317 27 17 35 77 3 221 180 211 195 177 152 135 117 98 89 81 77 63 62 61 43 35 22 17 18 22 11 9 11 18 15 5 9 17 11 355 347
0 352 356 105 76 17 64 58 355 354 7 223 297 71 246 123 139 159 166 165 144 116 86 76 81 89 75 52 12 5 8 2 5 13 15 19 19 14 18 19 14 9 15 4
124 3 357 17 111 153 72 134 150 224 229 274 335 146 201 154 162 164 163 160 155 140 95 88 83 85 92 131 315 353 0 15 25 30 33 29 26 24 24 25 24 24 24 22
134 163 17 75 102 101 312 9 177 127 322 74 204 69 45 158 165 165 167 171 179 180 185 167 179 172 181 219 345 357 11 35 41 48 51 52 52 48 42 36 30 26 22 25
175 119 343 19 40 328 149 173 41 7 201 239 286 208 218 189 186 188 186 194 200 207 210 209 206 200 199 225 346 1 41 44 76 72 62 52 42 34 30 26 28 28 23 15
79 88 294 44 65 353 6 38 65 115 139 167 311 280 235 180 189 194 203 207 209 216 217 216 210 209 214 214 340 302 290 112 99 79 38 14 19 16 16 20 23 18 13 11
15 130 236 231 271 184 144 130 114 117 276 131 152 269 234 187 188 196 211 213 219 222 226 221 211 216 231 228 257 272 209 199 276 326 350 15 13 15 20 23 23 21 18 15
177 43 33 344 354 5 45 12 109 123 83 200 141 263 248 248 206 214 223 211 222 223 219 221 214 227 227 231 274 299 224 184 91 60 18 17 3 360 6 11 11 17 18 13
110 111 156 194 181 218 321 325 311 147 126 224 212 249 285 257 238 246 294 165 207 221 221 224 225 229 230 238 288 284 270 220 225 318 327 351 353 348 348 349 355 1 8 3
101 142 188 236 279 6 287 297 301 292 227 178 247 234 271 283 317 54 106 104 107 115 204 226 227 222 217 221 236 326 268 254 272 291 320 328 339 338 335 327 340 348 348 351
15 202 146 292 303 337 306 284 269 274 276 166 141 213 28 79 83 80 86 92 84 70 66 172 221 215 211 221 232 270 238 244 272 274 300 319 317 317 317 308 330 330 335 339
131 133 113 250 253 335 319 256 238 207 18 140 74 304 97 69 84 93 89 87 93 92 91 96 106 225 237 233 269 240 244 256 274 255 286 302 308 317 311 312 317 319 321 326
143 134 132 203 50 236 239 302 96 94 49 65 91 66 109 109 100 90 75 83 91 101 103 100 134 196 225 242 247 225 238 216 224 211 265 290 306 314 312 307 309 315 321 325
170 133 137 151 188 290 319 334 188 144 47 60 94 93 120 115 97 81 101 85 108 104 112 107 103 151 154 153 137 184 217 215 251 293 299 300 304 310 311 312 315 311 312 317
99 102 130 134 156 226 241 319 131 87 166 199 106 115 94 88 69 253 165 156 165 178 166 164 162 164 188 208 265 275 287 298 285 286 295 308 314 312 313 315 313 312 314 316
79 56 152 145 191 283 249 308 185 131 221 106 84 84 66 69 354 180 185 179 175 170 162 155 154 141 130 136 305 294 292 296 304 306 306 310 314 316 317 312 299 303 308 315
157 147 196 107 150 274 200 87 174 177 145 129 101 96 91 65 26 136 150 148 167 178 187 244 289 303 285 282 261 269 283 289 292 294 304 309 309 312 313 315 317 307 308 307
131 170 184 168 215 237 207 164 166 163 127 100 109 110 93 96 97 115 171 196 193 206 242 286 102 293 90 120 226 291 305 303 306 310 312 318 327 324 325 331 328 325 320 315
349 119 118 92 53 82 112 106 124 138 127 121 135 135 113 83 101 203 185 172 189 322 128 132 165 279 296 316 321 318 313 315 323 337 341 334 328 331 321 321 328 327 320 313
221 113 160 288 118 104 104 112 118 113 125 170 153 129 95 70 132 155 156 144 109 118 120 151 222 304 313 323 338 342 335 333 329 333 335 335 330 330 320 316 323 317 316 326
180 188 158 216 185 157 162 143 176 168 151 149 161 167 148 143 139 133 130 117 149 144 153 316 332 329 328 307 313 314 316 322 330 334 337 336 339 334 324 327 333 334 342 331
Wind_Speed_850mb
4 11 3 13 13 14 5 3 11 12 13 9 4 5 25 35 43 32 41 56 56 57 57 52 53 48 34 26 15 14 38 44 52 51 58 60 56 52 58 69 76 65 60 62
11 8 17 15 7 4 14 12 12 8 17 10 6 12 16 22 25 30 34 41 45 46 45 47 50 52 49 39 30 12 6 14 29 42 46 50 52 54 55 63 63 67 71 69
13 15 10 5 6 9 8 13 8 3 10 5 3 7 13 19 32 34 37 39 42 43 44 44 45 45 40 41 36 25 15 9 11 15 23 39 49 52 60 57 60 61 60 64
8 4 8 11 9 8 8 2 9 10 9 4 8 7 2 14 11 21 27 34 37 38 38 38 36 39 42 40 32 27 25 22 20 19 20 18 18 28 30 36 43 57 62 55
7 6 3 11 6 6 8 2 5 3 5 8 12 7 5 18 5 3 15 26 30 31 30 28 26 29 29 29 29 27 26 25 28 28 26 24 22 22 25 26 36 46 42 36
6 5 9 10 6 7 3 10 17 12 7 4 4 10 10 10 13 8 13 18 21 24 23 22 19 15 15 17 19 23 26 29 32 34 35 31 29 25 24 24 25 23 23 25
11 13 8 9 10 17 18 13 7 9 8 11 10 8 5 15 24 24 28 26 19 16 16 17 15 13 12 10 11 16 22 28 32 33 33 34 33 33 34 35 29 26 20 12
7 8 9 7 8 8 6 11 10 9 5 10 12 3 7 20 42 43 41 32 21 12 9 10 12 11 7 1 4 13 19 22 25 26 26 27 29 32 34 35 36 32 28 24
6 5 7 10 5 8 7 3 10 7 4 5 3 7 7 13 17 29 39 35 27 18 14 9 7 6 5 3 4 11 13 15 15 19 22 25 29 31 33 31 26 21 20 18
3 5 5 8 5 5 10 7 6 7 5 6 8 9 7 20 21 16 27 40 35 30 30 26 20 15 9 3 7 7 6 6 10 15 21 27 32 37 37 34 33 29 24 19
7 8 11 7 4 3 8 5 9 8 8 8 4 10 10 17 24 29 38 54 50 43 37 32 28 23 15 4 5 7 2 1 6 8 12 21 26 33 38 39 41 40 34 29
2 9 2 11 11 5 5 6 8 9 11 3 7 11 7 21 32 48 56 58 52 45 40 40 35 29 21 10 4 3 5 4 5 10 14 19 27 33 36 40 43 45 43 36
9 4 5 16 13 13 9 7 4 7 6 9 9 10 6 14 22 27 28 44 54 53 48 47 41 36 26 18 7 9 8 6 3 9 13 18 26 29 30 35 40 42 42 41
14 7 11 12 8 6 8 14 9 7 6 8 12 14 21 11 15 30 15 6 24 32 39 43 46 41 32 23 13 14 8 8 8 10 18 21 27 28 30 34 36 42 39 40
10 8 7 7 6 4 5 12 17 8 13 11 12 9 17 17 9 13 41 41 33 18 25 37 50 49 41 28 15 12 22 17 14 20 24 27 29 33 33 33 36 36 39 50
5 3 5 4 7 10 13 18 19 19 23 10 10 2 9 34 46 44 32 30 26 22 18 10 29 48 44 44 29 23 21 19 28 36 28 29 38 39 38 28 31 39 43 45
9 10 7 8 6 8 12 10 9 6 11 7 9 5 8 17 31 35 30 24 20 18 16 12 4 17 38 42 35 25 21 29 31 21 22 31 29 26 22 22 30 32 35 41
12 11 7 8 4 5 13 12 22 26 14 16 17 12 18 26 30 27 22 22 20 16 13 9 7 9 16 17 19 22 19 20 9 3 4 15 19 21 24 31 36 38 42 50
17 10 4 8 7 10 13 5 5 7 5 6 13 14 20 23 25 21 18 12 16 15 14 10 6 8 14 15 12 14 16 14 12 20 22 27 30 33 35 38 43 50 54 55
12 9 10 6 7 10 7 8 10 12 1 2 13 8 11 12 6 7 20 12 12 13 16 18 15 15 11 8 8 19 23 30 26 27 25 30 36 41 48 49 48 43 44 43
6 5 11 5 6 13 7 13 2 9 12 3 19 18 18 9 3 3 18 13 14 15 23 21 14 6 7 5 11 21 29 26 28 34 38 41 44 51 53 60 49 37 38 41
12 11 7 5 4 11 12 3 9 13 15 24 15 14 17 10 9 8 16 17 18 18 15 9 14 19 17 23 22 22 22 20 25 31 36 45 50 54 50 43 34 33 34 36
3 12 9 13 11 8 6 2 17 19 28 17 16 19 10 10 12 7 7 11 13 11 12 8 1 7 5 4 5 12 17 24 31 39 44 45 35 26 24 26 28 30 28 32
10 4 6 7 4 20 33 26 27 19 20 15 17 13 6 6 4 3 12 12 3 5 6 4 4 10 17 19 26 32 29 28 28 25 27 27 32 32 31 27 26 26 32 34
8 2 8 1 7 22 20 22 17 11 6 9 9 5 6 6 7 6 10 4 8 6 6 6 2 9 18 26 18 15 19 24 26 26 27 37 39 34 27 26 25 26 33 32
9 7 7 10 17 11 12 7 3 4 15 21 11 7 8 7 16 20 18 14 19 10 3 5 14 19 16 13 22 23 22 25 25 26 40 37 35 31 23 24 20 24 31 31
Wind_Direction_850mb
345 59 241 252 210 201 240 6 20 15 0 98 114 41 116 104 99 99 112 122 126 115 105 91 85 81 77 86 100 181 207 217 229 241 245 260 244 259 262 274 266 260 262 267
20 218 237 209 184 53 33 56 356 341 4 74 32 53 104 85 86 100 89 81 85 86 82 75 70 66 64 62 62 60 312 249 248 239 242 259 255 255 268 272 268 259 256 258
169 227 194 123 42 78 31 80 67 96 309 50 108 0 102 68 85 87 84 84 77 72 70 63 50 46 45 43 42 46 53 31 0 312 285 260 260 262 261 274 275 266 255 255
161 257 132 62 69 89 76 350 53 22 61 261 77 267 141 110 60 68 76 73 72 66 61 56 51 46 42 41 35 32 36 35 29 13 346 336 325 312 326 322 314 304 304 302
216 128 108 87 153 96 183 42 24 323 20 45 352 70 292 115 92 106 100 84 74 72 63 62 57 51 47 47 43 33 29 40 38 30 26 13 9 9 2 349 329 320 328 328
239 249 165 143 93 52 317 27 17 35 77 3 221 180 211 195 177 152 135 117 98 89 81 77 63 62 61 43 35 22 17 18 22 11 9 11 18 15 5 9 17 11 355 347
0 352 356 105 76 17 64 58 355 354 7 223 297 71 246 123 139 159 166 165 144 116 86 76 81 89 75 52 12 5 8 2 5 13 15 19 19 14 18 19 14 9 15 4
124 3 357 17 111 153 72 134 150 224 229 274 335 146 201 154 162 164 163 160 155 140 95 88 83 85 92 131 315 353 0 15 25 30 33 29 26 24 24 25 24 24 24 22
134 163 17 75 102 101 312 9 177 127 322 74 204 69 45 158 165 165 167 171 179 180 185 167 179 172 181 219 345 357 11 35 41 48 51 52 52 48 42 36 30 26 22 25
175 119 343 19 40 328 149 173 41 7 201 239 286 208 218 189 186 188 186 194 200 207 210 209 206 200 199 225 346 1 41 44 76 72 62 52 42 34 30 26 28 28 23 15
79 88 294 44 65 353 6 38 65 115 139 167 311 280 235 180 189 194 203 207 209 216 217 216 210 209 214 214 340 302 290 112 99 79 38 14 19 16 16 20 23 18 13 11
15 130 236 231 271 184 144 130 114 117 276 131 152 269 234 187 188 196 211 213 219 222 226 221 211 216 231 228 257 272 209 199 276 326 350 15 13 15 20 23 23 21 18 15
177 43 33 344 354 5 45 12 109 123 83 200 141 263 248 248 206 214 223 211 222 223 219 221 214 227 227 231 274 299 224 184 91 60 18 17 3 360 6 11 11 17 18 13
110 111 156 194 181 218 321 325 311 147 126 224 212 249 285 257 238 246 294 165 207 221 221 224 225 229 230 238 288 284 270 220 225 318 327 351 353 348 348 349 355 1 8 3
101 142 188 236 279 6 287 297 301 292 227 178 247 234 271 283 317 54 106 104 107 115 204 226 227 222 217 221 236 326 268 254 272 291 320 328 339 338 335 327 340 348 348 351
15 202 146 292 303 337 306 284 269 274 276 166 141 213 28 79 83 80 86 92 84 70 66 172 221 215 211 221 232 270 238 244 272 274 300 319 317 317 317 308 330 330 335 339
131 133 113 250 253 335 319 256 238 207 18 140 74 304 97 69 84 93 89 87 93 92 91 96 106 225 237 233 269 240 244 256 274 255 286 302 308 317 311 312 317 319 321 326
143 134 132 203 50 236 239 302 96 94 49 65 91 66 109 109 100 90 75 83 91 101 103 100 134 196 225 242 247 225 238 216 224 211 265 290 306 314 312 307 309 315 321 325
170 133 137 151 188 290 319 334 188 144 47 60 94 93 120 115 97 81 101 85 108 104 112 107 103 151 154 153 137 184 217 215 251 293 299 300 304 310 311 312 315 311 312 317
99 102 130 134 156 226 241 319 131 87 166 199 106 115 94 88 69 253 165 156 165 178 166 164 162 164 188 208 265 275 287 298 285 286 295 308 314 312 313 315 313 312 314 316
79 56 152 145 191 283 249 308 185 131 221 106 84 84 66 69 354 180 185 179 175 170 162 155 154 141 130 136 305 294 292 296 304 306 306 310 314 316 317 312 299 303 308 315
157 147 196 107 150 274 200 87 174 177 145 129 101 96 91 65 26 136 150 148 167 178 187 244 289 303 285 282 261 269 283 289 292 294 304 309 309 312 313 315 317 307 308 307
131 170 184 168 215 237 207 164 166 163 127 100 109 110 93 96 97 115 171 196 193 206 242 286 102 293 90 120 226 291 305 303 306 310 312 318 327 324 325 331 328 325 320 315
349 119 118 92 53 82 112 106 124 138 127 121 135 135 113 83 101 203 185 172 189 322 128 132 165 279 296 316 321 318 313 315 323 337 341 334 328 331 321 321 328 327 320 313
221 113 160 288 118 104 104 112 118 113 125 170 153 129 95 70 132 155 156 144 109 118 120 151 222 304 313 323 338 342 335 333 329 333 335 335 330 330 320 316 323 317 316 326
180 188 158 216 185 157 162 143 176 168 151 149 161 167 148 143 139 133 130 117 149 144 153 316 332 329 328 307 313 314 316 322 330 334 337 336 339 334 324 327 333 334 342 331